Weather History for Miami, FL

Change the Weather History Date:

Sunday, January 27, 2013

  Actual Average Record
Temperature  
Mean Temperature 73 °F 68 °F  
Max Temperature 79 °F 77 °F 88 °F (1984)
Min Temperature 66 °F 60 °F 28 °F (1940)
Degree Days  
Heating Degree Days 0 1  
Month to date heating degree days 4 52  
Since 1 July heating degree days 20 89  
Cooling Degree Days 8 5  
Month to date cooling degree days 232 135  
Year to date cooling degree days 232 135  
Growing Degree Days 22 (Base 50)    
Moisture  
Dew Point 62 °F    
Average Humidity 68    
Maximum Humidity 81    
Minimum Humidity 54    
Precipitation  
Precipitation 0.00 in 0.06 in 1.45 in (1980)
Month to date precipitation 0.54 1.40  
Year to date precipitation 0.54 1.40  
Snow  
Snow 0.00 in - - ()
Month to date snowfall 0.0  
Since 1 July snowfall 0.0  
Snow Depth 0.00 in    
Sea Level Pressure  
Sea Level Pressure 30.25 in    
Wind  
Wind Speed 9 mph (ENE)    
Max Wind Speed 20 mph    
Max Gust Speed 25 mph    
Visibility 10 miles    
Events      
T = Trace of Precipitation, MM = Missing Value Source: NWS Daily Summary

Daily Weather History Graph

Daily Weather History Graph

Search for Another Location

Airport:

Trip Planner

Search our weather history database for the weather conditions in past years. The results will help you decide how hot, cold, wet, or windy it might be!

Date:

Astronomy

Jan. 27, 2013 Rise Set
Actual Time 7:06 AM EST 6:01 PM EST
Civil Twilight 6:42 AM EST 6:25 PM EST
Nautical Twilight 6:15 AM EST 6:53 PM EST
Astronomical Twilight 5:47 AM EST 7:20 PM EST
Moon 6:43 PM EST (1/27) 7:07 AM EST (1/27)
Length of Visible Light 11h 43m
Length of Day
10h 54m
Full, 100% of the Moon is Illuminated
Jan 27
Full
Feb 3
Last Quarter
Feb 10
New
Feb 17
First Quarter
Feb 25
Full

Hourly Weather History & Observations

Time (EST) Temp. Dew Point Humidity Pressure Visibility Wind Dir Wind Speed Gust Speed Precip Events Conditions
12:53 AM 69.1 °F 61.0 °F 75% 30.22 in 10.0 mi East 3.5 mph - N/A   Partly Cloudy
1:53 AM 68.0 °F 61.0 °F 78% 30.21 in 10.0 mi ENE 3.5 mph - N/A   Clear
2:53 AM 69.1 °F 62.1 °F 78% 30.21 in 10.0 mi ENE 3.5 mph - N/A   Scattered Clouds
3:53 AM 68.0 °F 61.0 °F 78% 30.21 in 10.0 mi Calm Calm - N/A   Scattered Clouds
4:53 AM 68.0 °F 61.0 °F 78% 30.21 in 10.0 mi Calm Calm - N/A   Scattered Clouds
5:53 AM 68.0 °F 61.0 °F 78% 30.22 in 10.0 mi North 3.5 mph - N/A   Partly Cloudy
6:53 AM 66.9 °F 61.0 °F 81% 30.22 in 10.0 mi North 4.6 mph - N/A   Scattered Clouds
7:53 AM 68.0 °F 62.1 °F 81% 30.25 in 10.0 mi North 4.6 mph - N/A   Mostly Cloudy
8:53 AM 72.0 °F 63.0 °F 73% 30.26 in 10.0 mi NNE 4.6 mph - N/A   Mostly Cloudy
9:46 AM 75.2 °F 62.6 °F 65% 30.27 in 10.0 mi East 15.0 mph 19.6 mph N/A   Mostly Cloudy
9:53 AM 77.0 °F 63.0 °F 62% 30.27 in 10.0 mi ENE 11.5 mph 19.6 mph N/A   Scattered Clouds
10:53 AM 77.0 °F 62.1 °F 60% 30.28 in 10.0 mi ENE 15.0 mph 19.6 mph N/A   Scattered Clouds
11:53 AM 77.0 °F 61.0 °F 58% 30.27 in 10.0 mi ENE 13.8 mph 19.6 mph N/A   Mostly Cloudy
12:53 PM 77.0 °F 61.0 °F 58% 30.25 in 10.0 mi ENE 12.7 mph 19.6 mph N/A   Scattered Clouds
1:53 PM 79.0 °F 61.0 °F 54% 30.24 in 10.0 mi ENE 13.8 mph 20.7 mph N/A   Scattered Clouds
2:53 PM 77.0 °F 61.0 °F 58% 30.23 in 10.0 mi ENE 11.5 mph - N/A   Scattered Clouds
3:53 PM 75.9 °F 62.1 °F 62% 30.23 in 10.0 mi East 15.0 mph 20.7 mph N/A   Mostly Cloudy
4:53 PM 75.9 °F 63.0 °F 64% 30.23 in 10.0 mi ENE 11.5 mph 16.1 mph N/A   Scattered Clouds
5:53 PM 75.0 °F 63.0 °F 66% 30.25 in 10.0 mi ENE 11.5 mph - N/A   Mostly Cloudy
6:37 PM 75.2 °F 64.4 °F 69% 30.26 in 10.0 mi East 11.5 mph 17.3 mph N/A   Mostly Cloudy
6:51 PM 75.2 °F 62.6 °F 65% 30.26 in 10.0 mi East 12.7 mph 17.3 mph N/A   Scattered Clouds
6:53 PM 75.0 °F 63.0 °F 66% 30.26 in 10.0 mi ENE 10.4 mph - N/A   Scattered Clouds
7:53 PM 73.0 °F 63.0 °F 71% 30.27 in 10.0 mi East 10.4 mph - N/A   Scattered Clouds
8:53 PM 73.0 °F 62.1 °F 68% 30.28 in 10.0 mi East 11.5 mph - N/A   Partly Cloudy
9:53 PM 72.0 °F 62.1 °F 71% 30.28 in 10.0 mi East 8.1 mph - N/A   Partly Cloudy
10:53 PM 72.0 °F 63.0 °F 73% 30.28 in 10.0 mi East 10.4 mph - N/A   Partly Cloudy
11:53 PM 73.0 °F 64.0 °F 73% 30.26 in 10.0 mi East 15.0 mph - N/A   Scattered Clouds